Weather in Melo

Uruguay     32°21′46″S   54°10′07″W
temp.,
°C
wind,
m/s
gust,
m/s
humid.,
%
clouds,
%
prec.,
mm/h
press.,
hPa
HPBL,
m
12 may, wed
wed1200:00+7ssw349116 0.0 102256
03:00+6ssw33920 0.0 102241
06:00+6sw22930 0.0 102122
09:00+10sw23800 0.0 1023151
12:00+15sw23620 0.0 1022971
15:00+16wsw34590 0.0 10211168
18:00+11wsw22780 0.0 102110
21:00+8w22830 0.0 102211
13 may, thu
thu1300:00+7nw22870 0.0 102213
03:00+6nw22890 0.0 102220
06:00+5wnw32900 0.0 102325
09:00+9w22775 0.0 1024125
12:00+15w235969 0.0 1024524
15:00+17w225439 0.0 1022684
18:00+11wsw11759 0.0 102210
21:00+9s017874 0.0 102410
14 may, fri
fri1400:00+8ene1179100 0.0 102410
03:00+8e118294 0.0 102310
06:00+7ene1183100 0.0 102210
09:00+11ese1173100 0.0 102464
12:00+16ese11555 0.0 1023466
15:00+18se23530 0.0 1020666
18:00+12ese33770 0.0 102025
21:00+9ese23784 0.0 102220
15 may, sat
sat1500:00+8ene22845 0.0 102115
03:00+7ene228435 0.0 102111
06:00+6ese118348 0.0 102110
09:00+10ese227353 0.0 102295
12:00+16e2253100 0.0 1022473
15:00+17ese22505 0.0 1020673
18:00+12ese33765 0.0 102018
21:00+9ese22835 0.0 102112
16 may, sun
sun1600:00+8ese228728 0.0 102111
03:00+8ese1189100 0.0 102110
06:00+8se119054 0.0 102010
09:00+11sse11835 0.0 102194
12:00+17s116657 0.0 1021576
15:00+17s2261100 0.0 1019800
18:00+13se2278100 0.0 102011
21:00+10sse2281100 0.0 102114